• în România
  • Lista ţărilor
  • Pe 7 zile
  • Temperatura apei
  • Hartă satelitară
  • Meteo pe hartă
  • Widget-uri
  • user-avatar
    Intrare

    Meteo pe oră la Karamyshka

    Astăzi, 15 August, Miercuri

    Timp Temperatura Precipitaţii Vânt Presiune Umiditate
    00:00 +18°C° 0 mm 1 m/s 746 mmHg 73%
    01:00 +18°C° 0 mm 1 m/s 746 mmHg 75%
    02:00 +16°C° 0 mm 1 m/s 746 mmHg 76%
    03:00 +16°C° 0 mm 1 m/s 746 mmHg 77%
    04:00 +16°C° 0 mm 1 m/s 747 mmHg 76%
    05:00 +18°C° 0 mm 1 m/s 747 mmHg 76%
    06:00 +16°C° 0 mm 0 m/s 747 mmHg 75%
    07:00 +18°C° 0 mm 0 m/s 748 mmHg 68%
    08:00 +20°C° 0 mm 0 m/s 748 mmHg 60%
    09:00 +22°C° 0 mm 0 m/s 748 mmHg 53%
    10:00 +23°C° 0 mm 0 m/s 748 mmHg 48%
    11:00 +27°C° 0 mm 1 m/s 748 mmHg 44%
    12:00 +28°C° 0 mm 1 m/s 748 mmHg 39%
    13:00 +28°C° 0 mm 1 m/s 748 mmHg 37%
    14:00 +28°C° 0 mm 1 m/s 748 mmHg 36%
    15:00 +28°C° 0 mm 1 m/s 747 mmHg 34%
    16:00 +28°C° 0 mm 1 m/s 747 mmHg 37%
    17:00 +28°C° 0 mm 1 m/s 747 mmHg 41%
    18:00 +27°C° 0 mm 1 m/s 747 mmHg 44%
    19:00 +26°C° 0 mm 1 m/s 747 mmHg 46%
    20:00 +24°C° 0 mm 1 m/s 747 mmHg 48%
    21:00 +22°C° 0 mm 1 m/s 747 mmHg 49%
    22:00 +22°C° 0 mm 1 m/s 747 mmHg 50%
    23:00 +21°C° 0 mm 2 m/s 747 mmHg 50%

    Mâine, 16 August, Joi

    Timp Temperatura Precipitaţii Vânt Presiune Umiditate
    00:00 +20°C° 0 mm 2 m/s 747 mmHg 51%
    01:00 +20°C° 0 mm 2 m/s 747 mmHg 52%
    02:00 +20°C° 0 mm 2 m/s 747 mmHg 52%
    03:00 +19°C° 0 mm 2 m/s 747 mmHg 53%
    04:00 +19°C° 0 mm 2 m/s 747 mmHg 55%
    05:00 +19°C° 0 mm 2 m/s 747 mmHg 57%
    06:00 +19°C° 0 mm 2 m/s 747 mmHg 59%
    07:00 +22°C° 0 mm 3 m/s 747 mmHg 54%
    08:00 +25°C° 0 mm 3 m/s 747 mmHg 50%
    09:00 +27°C° 0 mm 4 m/s 747 mmHg 45%
    10:00 +28°C° 0 mm 4 m/s 747 mmHg 42%
    11:00 +30°C° 0 mm 4 m/s 747 mmHg 40%
    12:00 +32°C° 0 mm 4 m/s 747 mmHg 37%
    13:00 +32°C° 0 mm 4 m/s 746 mmHg 36%
    14:00 +31°C° 0 mm 3 m/s 746 mmHg 35%
    15:00 +33°C° 0 mm 3 m/s 746 mmHg 34%
    16:00 +31°C° 0 mm 3 m/s 746 mmHg 37%
    17:00 +30°C° 0 mm 2 m/s 745 mmHg 41%
    18:00 +29°C° 0 mm 2 m/s 745 mmHg 44%
    19:00 +28°C° 0 mm 1 m/s 745 mmHg 46%
    20:00 +26°C° 0 mm 1 m/s 745 mmHg 48%
    21:00 +25°C° 0 mm 1 m/s 745 mmHg 49%
    22:00 +24°C° 0 mm 1 m/s 745 mmHg 50%
    23:00 +24°C° 0 mm 1 m/s 745 mmHg 51%

    Poimâine, 17 August, Vineri

    Timp Temperatura Precipitaţii Vânt Presiune Umiditate
    00:00 +23°C° 0 mm 1 m/s 745 mmHg 51%
    01:00 +23°C° 0 mm 1 m/s 745 mmHg 52%
    02:00 +23°C° 0 mm 1 m/s 745 mmHg 53%
    03:00 +22°C° 0 mm 1 m/s 745 mmHg 54%
    04:00 +22°C° 0 mm 1 m/s 745 mmHg 55%
    05:00 +22°C° 0 mm 1 m/s 745 mmHg 56%
    06:00 +23°C° 0 mm 1 m/s 745 mmHg 57%
    07:00 +24°C° 0 mm 1 m/s 745 mmHg 55%
    08:00 +25°C° 0 mm 1 m/s 746 mmHg 53%
    09:00 +26°C° 0 mm 1 m/s 746 mmHg 51%
    10:00 +26°C° 0 mm 1 m/s 746 mmHg 50%
    11:00 +27°C° 0 mm 1 m/s 746 mmHg 49%
    12:00 +28°C° 0 mm 2 m/s 746 mmHg 48%
    13:00 +28°C° 0,4 mm 2 m/s 746 mmHg 47%
    14:00 +29°C° 0,4 mm 2 m/s 745 mmHg 47%
    15:00 +29°C° 0,4 mm 3 m/s 745 mmHg 47%
    16:00 +28°C° 0,1 mm 3 m/s 745 mmHg 53%
    17:00 +27°C° 0,1 mm 3 m/s 745 mmHg 60%
    18:00 +26°C° 0,1 mm 4 m/s 745 mmHg 66%
    19:00 +23°C° 0,1 mm 4 m/s 745 mmHg 72%
    20:00 +22°C° 0,1 mm 4 m/s 746 mmHg 78%
    21:00 +20°C° 0,1 mm 4 m/s 746 mmHg 84%
    22:00 +19°C° 0,2 mm 3 m/s 746 mmHg 85%
    23:00 +19°C° 0,2 mm 3 m/s 746 mmHg 86%

    18 August, Sâmbătă

    Timp Temperatura Precipitaţii Vânt Presiune Umiditate
    00:00 +18°C° 0,2 mm 3 m/s 746 mmHg 87%
    01:00 +17°C° 0 mm 3 m/s 746 mmHg 86%
    02:00 +17°C° 0 mm 4 m/s 746 mmHg 85%
    03:00 +15°C° 0 mm 4 m/s 747 mmHg 84%
    04:00 +15°C° 0 mm 4 m/s 747 mmHg 84%
    05:00 +15°C° 0 mm 4 m/s 747 mmHg 84%
    06:00 +15°C° 0 mm 4 m/s 747 mmHg 84%
    07:00 +16°C° 0 mm 5 m/s 747 mmHg 75%
    08:00 +19°C° 0 mm 5 m/s 748 mmHg 66%
    09:00 +21°C° 0 mm 6 m/s 748 mmHg 58%
    10:00 +21°C° 0 mm 6 m/s 748 mmHg 53%
    11:00 +22°C° 0 mm 5 m/s 748 mmHg 48%
    12:00 +23°C° 0 mm 5 m/s 748 mmHg 43%
    13:00 +23°C° 0 mm 5 m/s 748 mmHg 42%
    14:00 +25°C° 0 mm 5 m/s 748 mmHg 41%
    15:00 +25°C° 0 mm 5 m/s 748 mmHg 40%
    16:00 +23°C° 0 mm 5 m/s 748 mmHg 44%
    17:00 +22°C° 0 mm 4 m/s 748 mmHg 48%
    18:00 +22°C° 0 mm 4 m/s 748 mmHg 53%
    19:00 +20°C° 0 mm 4 m/s 748 mmHg 57%
    20:00 +19°C° 0 mm 4 m/s 749 mmHg 62%
    21:00 +17°C° 0 mm 4 m/s 749 mmHg 66%
    22:00 +16°C° 0 mm 3 m/s 749 mmHg 68%
    23:00 +14°C° 0 mm 3 m/s 749 mmHg 69%

    19 August, Duminică

    Timp Temperatura Precipitaţii Vânt Presiune Umiditate
    00:00 +14°C° 0 mm 3 m/s 749 mmHg 71%
    01:00 +13°C° 0 mm 3 m/s 749 mmHg 73%
    02:00 +12°C° 0 mm 3 m/s 749 mmHg 76%
    03:00 +12°C° 0 mm 3 m/s 749 mmHg 78%
    04:00 +12°C° 0 mm 3 m/s 750 mmHg 78%
    05:00 +12°C° 0 mm 3 m/s 750 mmHg 79%
    06:00 +12°C° 0 mm 3 m/s 750 mmHg 79%
    07:00 +14°C° 0 mm 3 m/s 750 mmHg 72%
    08:00 +17°C° 0 mm 4 m/s 750 mmHg 64%
    09:00 +19°C° 0 mm 4 m/s 750 mmHg 57%
    10:00 +20°C° 0 mm 4 m/s 750 mmHg 52%
    11:00 +21°C° 0 mm 4 m/s 750 mmHg 47%
    12:00 +22°C° 0 mm 4 m/s 750 mmHg 43%
    13:00 +22°C° 0 mm 4 m/s 750 mmHg 42%
    14:00 +23°C° 0 mm 4 m/s 749 mmHg 40%
    15:00 +23°C° 0 mm 4 m/s 749 mmHg 39%
    16:00 +22°C° 0 mm 4 m/s 749 mmHg 43%
    17:00 +21°C° 0 mm 3 m/s 749 mmHg 47%
    18:00 +21°C° 0 mm 3 m/s 749 mmHg 51%
    19:00 +19°C° 0 mm 3 m/s 749 mmHg 54%
    20:00 +17°C° 0 mm 2 m/s 749 mmHg 58%
    21:00 +15°C° 0 mm 2 m/s 749 mmHg 62%
    22:00 +15°C° 0 mm 2 m/s 749 mmHg 64%
    23:00 +14°C° 0 mm 2 m/s 749 mmHg 67%

    20 August, Luni

    Timp Temperatura Precipitaţii Vânt Presiune Umiditate
    00:00 +14°C° 0 mm 2 m/s 749 mmHg 69%
    01:00 +13°C° 0 mm 2 m/s 749 mmHg 71%
    02:00 +13°C° 0 mm 2 m/s 749 mmHg 73%
    03:00 +12°C° 0 mm 2 m/s 749 mmHg 75%
    04:00 +13°C° 0 mm 1 m/s 749 mmHg 75%
    05:00 +13°C° 0 mm 1 m/s 749 mmHg 76%
    06:00 +13°C° 0 mm 1 m/s 749 mmHg 77%
    07:00 +15°C° 0 mm 1 m/s 749 mmHg 70%
    08:00 +18°C° 0 mm 1 m/s 749 mmHg 63%
    09:00 +20°C° 0 mm 1 m/s 749 mmHg 56%
    10:00 +21°C° 0 mm 1 m/s 749 mmHg 51%
    11:00 +22°C° 0 mm 1 m/s 749 mmHg 46%
    12:00 +24°C° 0 mm 1 m/s 749 mmHg 41%
    13:00 +24°C° 0 mm 1 m/s 749 mmHg 39%
    14:00 +25°C° 0 mm 1 m/s 748 mmHg 37%
    15:00 +25°C° 0 mm 1 m/s 748 mmHg 35%
    16:00 +25°C° 0 mm 1 m/s 748 mmHg 38%
    17:00 +22°C° 0 mm 0 m/s 748 mmHg 41%
    18:00 +22°C° 0 mm 0 m/s 748 mmHg 44%
    19:00 +20°C° 0 mm 0 m/s 748 mmHg 46%
    20:00 +20°C° 0 mm 1 m/s 748 mmHg 48%
    21:00 +19°C° 0 mm 1 m/s 748 mmHg 50%
    22:00 +18°C° 0 mm 1 m/s 748 mmHg 51%
    23:00 +18°C° 0 mm 1 m/s 748 mmHg 53%
    Arată mai mult